星链-33583 (STARLINK-33583)

导读 | 星芒AI

STARLINK-33583 是 SpaceX 星链计划中的一颗低轨通信卫星,属于第 6 批次发射的星链卫星群。该卫星于 2023 年发射,旨在为全球提供高速互联网服务,尤其覆盖偏远地区。它运行在约 550 公里的轨道高度,配备先进通信设备,支持 Ku 和 Ka 频段传输。星链项目计划部署数万颗卫星,以构建全球宽带网络,提升互联网接入的普及性和稳定性。STARLINK-33583 的运行有助于增强星链系统的冗余与覆盖能力。

基本信息
目录编号:
63503
目录名称:
STARLINK-33583
国际标识:
2025-071L
轨道中心:
EARTH
卫星名称:
星链-33583
卫星全名:
星链-33583 (STARLINK-33583)
卫星状态:
在轨 (已飞行207 天)
发射日期:
2025-04-07 UTC
国别 :
美国 (US)
星等 :
--
轨道信息
数据来源 国际轨道数据
星历时间: 2025-10-31T20:09:47+0800
10小时前
查看轨道信息
半长轴: 6853.519km
偏心率: 0.0001389
轨道倾角: 53.159°
近地点辐角 69.570°
升交点赤经 22.644°
平近点角 290.544°
近地点: 474.432km
远地点: 476.336km
周期: 94.109分钟
每日圈数: 15.301441
详细信息
固有亮度:
5
最大亮度:
2.5
卫星平台:
Starlink V1.0
覆盖范围:
全球
运营商:
太空探索技术公司
运营商所在国:
美国
制造商(研发单位):
太空探索技术公司
制造商所在国:
美国
使用方式:
暂无
卫星简介
Starlink 计划是 SpaceX 推出的全球卫星互联网项目,通过发射低轨道卫星,为全球尤其是偏远地区提供高速、低延迟的互联网服务。自 2019 年起,Starlink 已部署数千颗卫星,旨在缩小全球数字鸿沟,推动互联网普及。该项目还为军事、航空等行业提供通信支持,带来广泛经济效益。
2D轨道图
3D轨道图
轨道高度分析图
轨道倾角分析图
轨道综合分析图
查看轨道综合分析图